Weather History for Page, AZ

Change the Weather History Date:

Thursday, October 2, 2014

  Actual Average Record
Temperature  
Mean Temperature 58 °F -  
Max Temperature 69 °F 80 °F 92 °F (1978)
Min Temperature 46 °F 54 °F 40 °F (1959)
Degree Days  
Heating Degree Days 8    
Growing Degree Days 8 (Base 50)    
Moisture  
Dew Point 24 °F    
Average Humidity 26    
Maximum Humidity 42    
Minimum Humidity 8    
Precipitation  
Precipitation 0.00 in - - ()
Sea Level Pressure  
Sea Level Pressure 30.15 in    
Wind  
Wind Speed 4 mph (NNW)    
Max Wind Speed 8 mph    
Max Gust Speed -    
Visibility 10 miles    
Events      
Averages and records for this station are not official NWS values.
T = Trace of Precipitation, MM = Missing Value Source: NWS Daily Summary

Daily Weather History Graph

Daily Weather History Graph

Search for Another Location

Airport:

Trip Planner

Search our weather history database for the weather conditions in past years. The results will help you decide how hot, cold, wet, or windy it might be!

Date:

Astronomy

Oct. 02, 2014 Rise Set
Actual Time 6:22 AM MST 6:07 PM MST
Civil Twilight 5:56 AM MST 6:33 PM MST
Nautical Twilight 5:26 AM MST 7:03 PM MST
Astronomical Twilight 4:55 AM MST 7:33 PM MST
Moon 2:09 PM MST (10/2) No Moon Set
Length of Visible Light 12h 37m
Length of Day
11h 45m
First Quarter, 61% of the Moon is Illuminated
Oct 2
First Quarter
Oct 8
Full
Oct 15
Last Quarter
Oct 23
New
Oct 30
First Quarter

Hourly Weather History & Observations

Time (MST) Temp. Dew Point Humidity Pressure Visibility Wind Dir Wind Speed Gust Speed Precip Events Conditions
12:53 AM 55.9 °F 21.9 °F 27% 30.03 in 10.0 mi WNW 5.8 mph - N/A   Clear
1:53 AM 55.0 °F 21.9 °F 28% 30.04 in 10.0 mi NW 6.9 mph - N/A   Clear
2:53 AM 54.0 °F 21.9 °F 29% 30.06 in 10.0 mi NW 8.1 mph - N/A   Clear
3:53 AM 51.1 °F 24.1 °F 35% 30.07 in 10.0 mi Calm Calm - N/A   Clear
4:53 AM 48.9 °F 24.1 °F 38% 30.11 in 10.0 mi Calm Calm - N/A   Clear
5:53 AM 48.0 °F 26.1 °F 42% 30.14 in 10.0 mi SW 3.5 mph - N/A   Clear
6:53 AM 50.0 °F 24.1 °F 36% 30.17 in 10.0 mi SW 4.6 mph - N/A   Clear
7:53 AM 54.0 °F 25.0 °F 33% 30.19 in 10.0 mi Variable 3.5 mph - N/A   Clear
8:53 AM 55.9 °F 21.9 °F 27% 30.21 in 10.0 mi West 3.5 mph - N/A   Clear
9:53 AM 59.0 °F 21.9 °F 24% 30.22 in 10.0 mi WNW 4.6 mph - N/A   Clear
10:53 AM 63.0 °F 24.1 °F 23% 30.20 in 10.0 mi Variable 4.6 mph - N/A   Clear
11:53 AM 62.1 °F 24.1 °F 23% 30.19 in 10.0 mi Variable 3.5 mph - N/A   Clear
12:53 PM 66.0 °F 24.1 °F 20% 30.16 in 10.0 mi North 6.9 mph - N/A   Clear
1:53 PM 66.0 °F 21.0 °F 18% 30.14 in 10.0 mi North 6.9 mph - N/A   Clear
2:53 PM 69.1 °F 21.9 °F 17% 30.12 in 10.0 mi Variable 3.5 mph - N/A   Clear
3:53 PM 69.1 °F 21.9 °F 17% 30.12 in 10.0 mi NE 4.6 mph - N/A   Clear
4:53 PM 68.0 °F 21.0 °F 17% 30.11 in 10.0 mi NE 6.9 mph - N/A   Clear
5:53 PM 64.9 °F 21.9 °F 19% 30.13 in 10.0 mi NE 3.5 mph - N/A   Clear
6:53 PM 64.4 °F 21.2 °F 19% 30.24 in 10.0 mi NE 3.5 mph - N/A   Clear
7:53 PM 59.0 °F 26.1 °F 28% 30.15 in 10.0 mi Calm Calm - N/A   Clear
8:53 PM 57.9 °F 26.1 °F 30% 30.16 in 10.0 mi Calm Calm - N/A   Clear
9:53 PM 57.0 °F 25.0 °F 29% 30.17 in 10.0 mi Calm Calm - N/A   Clear
10:53 PM 55.0 °F 27.0 °F 34% 30.17 in 10.0 mi Calm Calm - N/A   Clear
11:53 PM 54.0 °F 28.0 °F 37% 30.18 in 10.0 mi Calm Calm - N/A   Clear